MST,Max TemperatureF,Mean TemperatureF,Min TemperatureF,Max Dew PointF,MeanDew PointF,Min DewpointF,Max Humidity, Mean Humidity, Min Humidity, Max Sea Level PressureIn, Mean Sea Level PressureIn, Min Sea Level PressureIn, Max VisibilityMiles, Mean VisibilityMiles, Min VisibilityMiles, Max Wind SpeedMPH, Mean Wind SpeedMPH, Max Gust SpeedMPH,PrecipitationIn, CloudCover, Events, WindDirDegrees
2013-1-1,18,8,-3,6,-2,-8,87,70,53,30.41,30.19,29.97,10,9,2,10,3,12,T,6,Snow,198
2013-1-2,21,9,-4,4,-1,-9,87,64,41,30.48,30.36,30.24,10,10,10,16,5,21,0.00,2,,210
2013-1-3,19,4,-12,-1,-7,-18,79,59,39,30.65,30.52,30.39,10,10,10,12,5,14,0.00,0,,205
2013-1-4,26,10,-6,5,-3,-10,82,61,40,30.53,30.41,30.26,10,10,10,9,5,10,0.00,0,,190
2013-1-5,30,13,-5,6,-1,-9,79,57,35,30.58,30.46,30.33,10,10,10,10,4,13,0.00,0,,219
2013-1-6,31,14,-3,9,0,-9,75,55,34,30.52,30.32,30.14,10,10,10,10,5,13,0.00,0,,183
2013-1-7,34,19,3,8,2,-3,79,54,29,30.25,30.13,30.01,10,10,10,12,5,13,0.00,0,,200
2013-1-8,35,21,6,11,4,-2,73,53,32,30.48,30.24,30.05,10,10,10,10,5,12,0.00,1,,199
2013-1-9,37,20,3,13,7,0,76,57,38,30.53,30.38,30.17,10,10,10,10,5,12,0.00,0,,201
2013-1-10,43,26,8,23,11,2,73,49,25,30.09,29.79,29.37,10,10,10,16,6,24,0.00,2,,163
2013-1-11,33,15,-3,23,9,-9,92,64,36,29.94,29.50,29.17,10,7,0,14,7,20,0.03,7,Fog-Snow,302
2013-1-12,14,2,-10,0,-9,-16,83,60,36,30.09,29.99,29.77,10,9,3,17,6,20,T,4,,220
2013-1-13,12,2,-9,1,-8,-16,86,68,49,30.16,30.01,29.79,10,8,2,12,4,14,T,7,Snow,297
2013-1-14,8,-2,-13,-6,-11,-21,82,66,50,30.37,30.17,29.86,10,9,3,10,4,14,T,5,Snow,253
2013-1-15,10,-3,-17,-1,-11,-24,75,62,49,30.62,30.53,30.39,10,10,10,9,4,12,0.00,6,,252
2013-1-16,27,12,-3,11,2,-8,80,65,50,30.65,30.58,30.44,10,10,10,9,4,12,0.00,1,,206
2013-1-17,33,18,2,15,6,-2,88,68,47,30.70,30.57,30.38,10,10,10,10,5,12,0.00,0,,201
2013-1-18,37,20,2,11,4,-3,83,59,35,30.59,30.46,30.35,10,10,10,10,6,13,0.00,0,,207
2013-1-19,37,20,3,12,3,-5,69,53,36,30.56,30.46,30.37,10,10,10,12,6,14,0.00,0,,220
2013-1-20,40,22,3,7,1,-5,68,45,22,30.50,30.39,30.27,10,10,10,12,5,15,0.00,0,,210
2013-1-21,40,23,6,8,2,-4,69,47,25,30.46,30.38,30.28,10,10,10,12,4,15,0.00,0,,213
2013-1-22,42,23,3,9,0,-6,68,45,22,30.51,30.41,30.31,10,10,10,10,6,13,0.00,0,,211
2013-1-23,41,23,5,14,3,-6,60,42,23,30.54,30.41,30.27,10,10,10,12,5,14,0.00,0,,182
2013-1-24,40,28,15,30,18,5,100,67,33,30.33,30.27,30.22,10,8,3,13,4,14,0.03,6,Snow,254
2013-1-25,38,32,25,31,29,24,100,88,76,30.32,30.21,30.09,10,8,3,8,2,9,T,8,Rain,30
2013-1-26,41,33,24,32,29,21,92,73,54,30.16,29.88,29.70,10,5,0,8,2,10,0.08,7,Fog-Snow,265
2013-1-27,45,34,23,31,28,15,100,69,37,29.90,29.79,29.65,10,4,0,13,3,17,0.06,6,Fog-Snow,343
2013-1-28,36,26,16,27,22,12,92,74,56,29.72,29.66,29.57,10,3,0,25,6,30,0.16,7,Fog-Snow,348
2013-1-29,18,13,7,11,7,3,92,73,54,30.03,29.78,29.68,10,5,1,14,5,20,0.04,7,Snow,356
2013-1-30,18,12,6,14,8,1,88,78,67,30.21,30.05,29.90,10,3,0,8,2,9,0.07,8,Snow,299
2013-1-31,32,23,13,20,15,10,92,75,58,30.33,30.18,30.07,10,5,1,13,3,16,0.04,7,Snow,247